Location: Waco, TX
(31.5480°N, 97.1670°W)
Time: 13:41:24
(UTC-05:00)

ISS - Pass Details

Date: 12 May 2021
Orbit: 417 x 422 km, 51.6° (Epoch: 15 May)

Event Time Altitude Azimuth Distance (km) Brightness Sun altitude
Rises 06:50:38 0° 313° (NW) 2,367 -0.2 2.5°
Reaches altitude 10° 06:52:44 10° 311° (NW) 1,501 -1.2 2.9°
Maximum altitude 06:56:06 72° 228° (SW) 444 -3.7 3.6°
Drops below altitude 10° 06:59:26 10° 142° (SE) 1,494 -0.7 4.2°
Sets 07:01:32 0° 140° (SE) 2,355 0.3 4.7°
